General Aviation Weather

Text Reports

Enter one or more of the following location identifiers separated by a space:

Zip Code, Four-Character ICAO or Three-Character IATA airport codes.

METAR - Aviation Routine Weather Report
KPHP - Philip, South Dakota
Updated at 12:55 AM GMT on January 31, 2015 (5:55 PM MST):
METAR KPHP 310055Z AUTO 00000KT 10SM CLR 02/M04 A3013 RMK AO2 SLP224 T00221044
TAF - Terminal Area Forecast
KPHP - Philip, South Dakota
Updated at 12:55 AM GMT on January 31, 2015 (5:55 PM MST):
No TAF is currently available for this location.
Decoded:
No decoded TAF is available.
PIREP - Pilot Weather Report
KPHP - Philip, South Dakota
Updated at 12:55 AM GMT on January 31, 2015 (5:55 PM MST):
No PIREP is currently available for this location.
AIRMET - Airmens Meteorological Information
KPHP - Philip, South Dakota
Updated at 12:55 AM GMT on January 31, 2015 (5:55 PM MST):
No AIRMET is currently available for this location.
SIGMET - Significant Meteorological Information
KPHP - Philip, South Dakota
Updated at 12:55 AM GMT on January 31, 2015 (5:55 PM MST):
No SIGMET is currently available for this location.
NOTAM - Notice to Airmen
KPHP - Philip, South Dakota
Updated at 12:55 AM GMT on January 31, 2015 (5:55 PM MST):
No NOTAM is currently available for this location.
Forecast Area
KPHP - Philip, South Dakota
Updated at 12:55 AM GMT on January 31, 2015 (5:55 PM MST):
No NOTAM is currently available for this location.
Aviation Weather Maps